Location: Tauranga
(37.6860°S, 176.1670°E)
Time: 17:21:32
(UTC+13:00)

Cosmos 2219 Rocket - Pass Details

Date: 24 January 2019
Orbit: 829 x 845 km, 71.0° (Epoch: 22 February)

Event Time Altitude Azimuth Distance (km) Brightness Sun altitude
Exits shadow 23:36:34 77° 101° (E) 874 2.1 -27.4°
Drops below altitude 10° 23:42:05 10° 155° (SSE) 2,494 5.1 -27.9°
Sets 23:44:33 0° 156° (SSE) 3,437 5.9 -28.2°
